TimeAKST,TemperatureF,Dew PointF,Humidity,Sea Level PressureIn,VisibilityMPH,Wind Direction,Wind SpeedMPH,Gust SpeedMPH,PrecipitationIn,Events,Conditions,WindDirDegrees,DateUTC
12:16 AM,-11.2,-9999,N/A,29.98,10.0,NE,4.6,-,N/A,,Clear,40,2013-03-06 09:16:00
12:36 AM,-13.0,-9999,N/A,29.97,10.0,NNE,4.6,-,N/A,,Clear,30,2013-03-06 09:36:00
12:56 AM,-14.8,-9999,N/A,29.97,10.0,NNE,3.5,-,N/A,,Clear,30,2013-03-06 09:56:00
1:16 AM,-14.8,-9999,N/A,29.97,9.0,Calm,Calm,-,N/A,,Clear,0,2013-03-06 10:16:00
1:36 AM,-14.8,-9999,N/A,29.96,10.0,Calm,Calm,-,N/A,,Clear,0,2013-03-06 10:36:00
1:56 AM,-14.8,-27.4,53,29.96,10.0,ENE,3.5,-,N/A,,Clear,60,2013-03-06 10:56:00
2:16 AM,-14.8,-9999,N/A,29.96,10.0,Calm,Calm,-,N/A,,Clear,0,2013-03-06 11:16:00
2:36 AM,-14.8,-18.4,84,29.96,10.0,Calm,Calm,-,N/A,,Clear,0,2013-03-06 11:36:00
2:56 AM,-16.6,-9999,N/A,29.95,10.0,Calm,Calm,-,N/A,,Clear,0,2013-03-06 11:56:00
3:16 AM,-14.8,-20.2,77,29.94,10.0,ESE,3.5,-,N/A,,Clear,110,2013-03-06 12:16:00
3:36 AM,-14.8,-9999,N/A,29.94,10.0,Calm,Calm,-,N/A,,Clear,0,2013-03-06 12:36:00
3:56 AM,-14.8,-9999,N/A,29.93,10.0,Calm,Calm,-,N/A,,Clear,0,2013-03-06 12:56:00
4:16 AM,-14.8,-9999,N/A,29.93,10.0,ENE,3.5,-,N/A,,Clear,60,2013-03-06 13:16:00
4:36 AM,-14.8,-9999,N/A,29.92,10.0,North,3.5,-,N/A,,Clear,10,2013-03-06 13:36:00
4:56 AM,-16.6,-9999,N/A,29.91,10.0,NNE,5.8,-,N/A,,Clear,20,2013-03-06 13:56:00
5:16 AM,-16.6,-9999,N/A,29.91,10.0,NNE,5.8,-,N/A,,Clear,30,2013-03-06 14:16:00
5:36 AM,-16.6,-9999,N/A,29.91,10.0,NNE,4.6,-,N/A,,Clear,20,2013-03-06 14:36:00
5:56 AM,-16.6,-9999,N/A,29.91,10.0,North,3.5,-,N/A,,Clear,10,2013-03-06 14:56:00
6:16 AM,-18.4,-27.4,63,29.90,10.0,Calm,Calm,-,N/A,,Clear,0,2013-03-06 15:16:00
6:36 AM,-16.6,-22.0,76,29.90,10.0,Calm,Calm,-,N/A,,Clear,0,2013-03-06 15:36:00
6:56 AM,-16.6,-9999,N/A,29.90,10.0,Calm,Calm,-,N/A,,Clear,0,2013-03-06 15:56:00
7:16 AM,-18.4,-23.8,76,29.90,10.0,Calm,Calm,-,N/A,,Clear,0,2013-03-06 16:16:00
7:36 AM,-20.2,-9999,N/A,29.90,10.0,Calm,Calm,-,N/A,,Clear,0,2013-03-06 16:36:00
7:56 AM,-18.4,-9999,N/A,29.90,10.0,Calm,Calm,-,N/A,,Clear,0,2013-03-06 16:56:00
8:16 AM,-18.4,-9999,N/A,29.90,9.0,Calm,Calm,-,N/A,,Clear,0,2013-03-06 17:16:00
8:36 AM,-14.8,-9999,N/A,29.89,10.0,Calm,Calm,-,N/A,,Clear,0,2013-03-06 17:36:00
8:56 AM,-16.6,-9999,N/A,29.89,10.0,ENE,3.5,-,N/A,,Clear,70,2013-03-06 17:56:00
9:16 AM,-14.8,-9999,N/A,29.88,10.0,ENE,3.5,-,N/A,,Clear,60,2013-03-06 18:16:00
9:36 AM,-14.8,-9999,N/A,29.88,10.0,NE,4.6,-,N/A,,Clear,40,2013-03-06 18:36:00
9:56 AM,-14.8,-9999,N/A,29.88,10.0,Calm,Calm,-,N/A,,Clear,0,2013-03-06 18:56:00
10:16 AM,-11.2,-23.8,54,29.88,10.0,Calm,Calm,-,N/A,,Clear,0,2013-03-06 19:16:00
10:36 AM,-11.2,-20.2,64,29.88,10.0,Calm,Calm,-,N/A,,Clear,0,2013-03-06 19:36:00
10:56 AM,-9.4,-22.0,54,29.88,10.0,Calm,Calm,-,N/A,,Clear,0,2013-03-06 19:56:00
11:16 AM,-9.4,-9.4,100,29.87,10.0,North,3.5,-,N/A,,Clear,10,2013-03-06 20:16:00
11:36 AM,-7.6,-9999,N/A,29.87,10.0,Calm,Calm,-,N/A,,Clear,0,2013-03-06 20:36:00
11:56 AM,-7.6,-9999,N/A,29.87,10.0,Calm,Calm,-,N/A,,Clear,0,2013-03-06 20:56:00
12:16 PM,-5.8,-9999,N/A,29.87,10.0,Calm,Calm,-,N/A,,Clear,0,2013-03-06 21:16:00
12:36 PM,-4.0,-27.4,32,29.86,10.0,Calm,Calm,-,N/A,,Clear,0,2013-03-06 21:36:00
12:56 PM,-2.2,-23.8,35,29.86,10.0,Calm,Calm,-,N/A,,Clear,0,2013-03-06 21:56:00
1:16 PM,-2.2,-16.6,50,29.86,10.0,Calm,Calm,-,N/A,,Clear,0,2013-03-06 22:16:00
1:36 PM,-0.4,-9999,N/A,29.86,10.0,Calm,Calm,-,N/A,,Clear,0,2013-03-06 22:36:00
1:56 PM,-0.4,-7.6,72,29.86,10.0,Calm,Calm,-,N/A,,Clear,0,2013-03-06 22:56:00
2:16 PM,1.4,-14.8,47,29.85,10.0,Calm,Calm,-,N/A,,Clear,0,2013-03-06 23:16:00
2:36 PM,1.4,-29.2,23,29.84,10.0,Calm,Calm,-,N/A,,Clear,0,2013-03-06 23:36:00
2:56 PM,3.2,-18.4,36,29.83,10.0,Calm,Calm,-,N/A,,Clear,0,2013-03-06 23:56:00
3:16 PM,3.2,-18.4,36,29.83,10.0,ENE,3.5,-,N/A,,Clear,60,2013-03-07 00:16:00
3:36 PM,3.2,-22.0,30,29.83,10.0,Calm,Calm,-,N/A,,Clear,0,2013-03-07 00:36:00
3:56 PM,3.2,-20.2,33,29.83,10.0,Calm,Calm,-,N/A,,Clear,0,2013-03-07 00:56:00
4:16 PM,3.2,-14.8,43,29.82,10.0,Calm,Calm,-,N/A,,Clear,0,2013-03-07 01:16:00
4:36 PM,3.2,-11.2,51,29.82,10.0,Calm,Calm,-,N/A,,Clear,0,2013-03-07 01:36:00
4:56 PM,3.2,-9.4,56,29.81,10.0,Calm,Calm,-,N/A,,Clear,0,2013-03-07 01:56:00
5:16 PM,3.2,-9.4,56,29.81,10.0,Calm,Calm,-,N/A,,Clear,0,2013-03-07 02:16:00
5:36 PM,3.2,-14.8,43,29.81,10.0,Calm,Calm,-,N/A,,Clear,0,2013-03-07 02:36:00
5:56 PM,3.2,3.2,100,29.81,10.0,Calm,Calm,-,N/A,,Clear,0,2013-03-07 02:56:00
6:16 PM,1.4,-23.8,30,29.81,10.0,Calm,Calm,-,N/A,,Clear,0,2013-03-07 03:16:00
6:36 PM,-0.4,-23.8,32,29.81,10.0,Calm,Calm,-,N/A,,Clear,0,2013-03-07 03:36:00
6:56 PM,-2.2,-23.8,35,29.80,10.0,Calm,Calm,-,N/A,,Clear,0,2013-03-07 03:56:00
7:16 PM,-2.2,-22.0,39,29.81,10.0,Calm,Calm,-,N/A,,Clear,0,2013-03-07 04:16:00
7:36 PM,-2.2,-23.8,35,29.81,10.0,Calm,Calm,-,N/A,,Clear,0,2013-03-07 04:36:00
7:56 PM,-5.8,-20.2,50,29.80,10.0,Calm,Calm,-,N/A,,Clear,0,2013-03-07 04:56:00
8:16 PM,-7.6,-18.4,59,29.80,10.0,Calm,Calm,-,N/A,,Clear,0,2013-03-07 05:16:00
8:36 PM,-7.6,-14.8,71,29.81,10.0,Calm,Calm,-,N/A,,Clear,0,2013-03-07 05:36:00
8:56 PM,-9.4,-23.8,49,29.80,10.0,Calm,Calm,-,N/A,,Clear,0,2013-03-07 05:56:00
9:16 PM,-9.4,-11.2,92,29.80,10.0,Calm,Calm,-,N/A,,Clear,0,2013-03-07 06:16:00
9:36 PM,-11.2,-29.2,41,29.80,10.0,Calm,Calm,-,N/A,,Clear,0,2013-03-07 06:36:00
9:56 PM,-11.2,-16.6,77,29.80,10.0,Calm,Calm,-,N/A,,Clear,0,2013-03-07 06:56:00
10:16 PM,-11.2,-9999,N/A,29.79,10.0,Calm,Calm,-,N/A,,Clear,0,2013-03-07 07:16:00
10:36 PM,-11.2,-9999,N/A,29.79,10.0,NNE,3.5,-,N/A,,Clear,30,2013-03-07 07:36:00
10:56 PM,-11.2,-9999,N/A,29.79,10.0,Calm,Calm,-,N/A,,Clear,0,2013-03-07 07:56:00
11:16 PM,-9.4,-9999,N/A,29.79,10.0,Calm,Calm,-,N/A,,Clear,0,2013-03-07 08:16:00
11:36 PM,-11.2,-29.2,41,29.79,10.0,Calm,Calm,-,N/A,,Clear,0,2013-03-07 08:36:00
11:56 PM,-11.2,-27.4,45,29.79,9.0,Calm,Calm,-,N/A,,Clear,0,2013-03-07 08:56:00